Location: Quispamsis
(45.4447°N, 65.9414°W)
Time: 00:42:09
(UTC-04:00)

Daily predictions for brighter satellites

Satellite Brightness Start Highest point End
(mag) Time Altitude Azimuth Time Altitude Azimuth Time Altitude Azimuth
USA 234 4.5 04:06:26 10° ENE 04:11:13 33° NNE 04:11:13 33° NNE
SL-16 R/B 3.6 04:28:03 35° E 04:28:03 35° E 04:31:43 10° SE
Cosmos 2297 Rocket 3.3 04:37:38 39° NE 04:37:38 39° NE 04:41:21 10° NNE
Cosmos 2227 Rocket 3.4 04:51:05 35° NNE 04:51:05 35° NNE 04:54:13 10° NNE
SeaSat 1 3.8 04:57:19 10° NNE 04:59:52 31° NNE 04:59:52 31° NNE
USA 229 DEB 3.7 05:08:19 70° SW 05:08:19 70° SW 05:15:26 10° SSE
USA 229 3.6 05:08:22 70° SW 05:08:22 70° SW 05:15:32 10° SSE
Cosmos 2151 4.4 05:12:41 31° NE 05:13:50 37° ENE 05:17:46 10° SE
SL-8 R/B 4.1 05:17:45 61° ENE 05:17:45 61° ENE 05:21:54 10° E
Cosmos 2233 Rocket 4.2 05:11:18 10° S 05:17:29 70° E 05:23:46 10° NNE
Cosmos 1842 Rocket 4.1 05:18:05 54° E 05:18:12 55° E 05:22:28 10° NNE
ADEOS II 4.3 05:13:17 10° N 05:13:57 14° N 05:13:57 14° N
Cosmos 2082 4.2 05:19:50 46° N 05:19:50 46° N 05:24:05 10° NNE
NOAA 6 4.4 05:15:13 10° NNE 05:20:23 64° ESE 05:25:32 10° S
COSMO-SKYMED 1 3.0 05:16:24 10° SSE 05:20:34 60° E 05:20:34 60° E
NOSS 3-1 (A) 4.4 05:17:48 30° NNW 05:21:50 62° NE 05:30:00 10° SE
ISS -0.6 05:26:18 16° SE 05:26:18 16° SE 05:27:07 10° SE
ATLAS 2AS CENTAUR R/B 4.3 05:24:35 17° NNW 05:29:55 33° NNE 05:36:52 10° E
Cosmos 1603 4.3 05:27:12 24° N 05:30:28 53° ENE 05:35:59 10° SE
Cosmos 1500 Rocket 3.8 05:33:22 62° S 05:33:22 62° S 05:37:05 10° S
Cosmos 1816 Rocket 4.4 05:30:55 22° NNW 05:35:09 65° W 05:41:19 10° S
Cosmos 2346 Rocket 4.3 05:30:19 10° N 05:36:29 85° W 05:42:33 10° S
Cosmos 220 Rocket 3.9 05:37:32 84° S 05:37:39 88° ESE 05:42:04 10° NNE
CZ-4 R/B 4.2 05:41:58 10° NE 05:44:56 19° E 05:47:54 10° SE
Tsikada Rocket 4.3 05:49:33 42° W 05:49:33 42° W 05:55:23 10° SSW
SKYMED 3 4.4 05:46:25 10° S 05:50:43 65° WSW 05:50:58 64° W
CSL-04 Rocket 4.4 05:48:51 10° NNE 05:54:03 52° E 05:59:10 10° S
USA 234 3.6 05:48:07 10° ESE 05:54:34 62° NNE 05:58:33 25° NW
Cosmos 1328 4.4 06:00:05 40° SW 06:00:05 40° SW 06:02:58 10° S
Cosmos 292 Rocket 4.4 05:55:09 13° N 05:59:16 54° ENE 06:03:58 10° SE
Cosmos 2227 4.5 05:56:24 10° SSW 06:01:57 68° ESE 06:07:33 10° NNE
NOSS 3-1 (C) 4.0 05:57:38 25° NW 06:02:33 73° WSW 06:10:50 10° SSE
Genesis I 3.1 06:04:08 53° NW 06:04:57 77° SW 06:08:52 10° SSE
ERBS 2.7 06:05:30 47° SSW 06:05:30 47° SSW 06:08:33 10° SSE
IDEFIX/ARIANE 42P 4.2 06:01:23 10° NNE 06:06:14 36° E 06:11:03 10° SSE
SKYMED 2 3.9 06:04:43 10° S 06:08:50 42° W 06:09:13 41° W
Cosmos 1464 Rocket 4.1 06:03:00 10° S 06:09:19 80° E 06:15:37 10° N
Cosmos 1538 Rocket 4.2 06:07:13 28° NW 06:09:45 51° WSW 06:14:55 10° S
SL-16 R/B 2.9 06:09:59 30° W 06:10:13 30° WSW 06:15:04 10° SSW
BREEZE-M DEB (TANK) 2.9 06:10:28 39° NNW 06:10:49 41° N 06:13:00 10° ENE
Coronas F rocket 3.8 06:10:10 10° NNE 06:12:04 20° ENE 06:13:56 10° SE
Cosmos 923 Rocket 4.0 06:12:19 11° NNW 06:17:20 88° ENE 06:22:35 10° SSE
CZ-3 Stage 3 4.1 06:13:20 10° SW 06:17:21 22° SSE 06:27:48 10° SE
Ariane Rocket 2.9 06:13:51 10° NNE 06:18:59 80° WNW 06:24:05 10° SSW
Cosmos 2297 Rocket 3.1 06:19:29 26° WNW 06:20:13 27° NW 06:24:59 10° N
Cosmos 2058 3.0 06:20:01 18° NNW 06:22:51 50° W 06:26:51 10° S
Meteor 1-4 Rocket 4.4 06:25:25 18° NNW 06:25:25 18° NNW 06:26:42 10° N
Cosmos 1666 Rocket 4.0 06:19:20 10° N 06:23:47 67° E 06:28:13 10° SSE
Tiangong 2 4.1 06:23:06 10° S 06:24:32 13° SSE 06:25:57 10° ESE
Cosmos 1703 3.1 06:21:50 10° N 06:25:46 80° W 06:29:41 10° S
Cosmos 1680 Rocket 3.6 06:20:29 10° NNW 06:25:50 82° ENE 06:31:09 10° SSE
CZ-2C R/B 3.2 06:21:35 10° NNE 06:26:04 50° E 06:30:30 10° S
Cosmos 2221 2.4 06:22:03 10° SSW 06:26:22 72° W 06:30:42 10° N
Cosmos 1072 Rocket 4.4 06:23:28 10° SSW 06:29:36 68° W 06:35:44 10° N
Cosmos 2227 Rocket 3.6 06:32:56 18° NW 06:33:26 18° NW 06:37:17 10° N
Aureole 1 4.3 06:34:38 10° SSW 06:37:45 61° WNW 06:41:32 10° NNE
Meteor 1-16 Rocket 4.5 06:33:22 10° SW 06:38:25 40° WNW 06:43:26 10° N
SeaSat 1 3.9 06:36:05 10° N 06:39:10 17° NW 06:39:40 17° NW
Meteor 1-28 Rocket 4.2 06:36:35 10° SSW 06:39:46 26° W 06:41:05 21° WNW
Cosmos 1271 Rocket 3.3 06:37:00 10° SW 06:40:28 33° WNW 06:43:57 10° N
Cosmos 1340 Rocket 3.6 06:39:37 18° NW 06:41:44 30° W 06:45:12 10° SSW
PAYLOAD A 3.8 06:39:22 10° N 06:44:26 75° WNW 06:49:17 10° SSW
Cosmos 1626 2.2 06:42:49 10° NNW 06:46:30 57° W 06:50:09 10° S
Cosmos 1356 Rocket 3.5 06:42:36 10° NNW 06:46:35 51° W 06:50:36 10° S
Helios 1B rocket 2.7 06:43:58 10° SSE 06:48:03 70° ENE 06:52:09 10° N
ATLAS CENTAUR R/B 4.1 06:45:24 11° NNW 06:49:00 29° NNE 06:57:38 10° E
Cosmos 968 Rocket 4.4 06:45:39 10° WSW 06:50:08 28° WNW 06:54:40 10° N
TELKOM 3 2.8 06:48:52 18° WSW 06:50:31 80° NNW 06:52:39 10° ENE
Cosmos 2151 4.3 06:49:21 16° WNW 06:50:52 20° W 06:53:57 10° SW
Cosmos 389 Rocket 2.8 06:47:31 10° S 06:51:10 76° E 06:54:52 10° NNE
Cosmos 1943 3.2 06:46:50 10° NNW 06:52:34 77° WSW 06:58:14 10° SSE
Cosmos 1484 Rocket 4.2 06:50:43 10° NNE 06:54:35 43° E 06:58:23 10° S
Cosmos 1470 Rocket 4.1 06:52:00 10° N 06:56:18 60° E 07:00:35 10° SSE
COSMO-SKYMED 1 4.2 06:54:57 10° WSW 06:57:14 14° W 06:57:47 14° W
SL-8 R/B 4.2 06:55:44 14° WNW 06:59:36 49° SSW 07:04:13 10° SE
Cosmos 2112 Rocket 4.1 06:55:30 10° NNW 07:00:45 60° WSW 07:05:59 10° S
IRS-1A Rocket 4.4 06:54:56 10° N 07:00:47 67° WNW 07:06:33 10° SSW
Cosmos 1805 Rocket 4.2 06:58:45 10° NNW 07:02:43 33° W 07:06:39 10° SSW
CORIOLIS 4.3 06:59:38 10° NNE 07:05:05 83° ESE 07:10:32 10° SSW
Cosmos 2228 Rocket 3.1 07:01:07 10° S 07:05:33 87° E 07:09:59 10° N
CSL-04 Debris 4.5 07:01:26 10° N 07:06:40 46° WNW 07:11:51 10° SW
SJ-12 4.0 07:03:33 10° N 07:07:33 52° WNW 07:11:30 10° SSW
AQUARIUS 4.1 07:04:52 10° N 07:09:21 68° WNW 07:13:49 10° SSW
Cosmos 1184 Rocket 4.1 07:15:37 10° NW 07:18:17 23° W 07:20:56 10° SW
Cosmos 2263 Rocket 2.3 07:13:56 10° SSW 07:19:37 89° ESE 07:25:22 10° NNE
CZ-4 R/B 1.9 07:16:20 10° N 07:20:07 38° WNW 07:23:55 10° SW
ATLAS 2AS CENTAUR R/B 3.1 07:13:50 10° NW 07:22:00 90° NE 07:29:36 10° SE
APEX 3.1 07:19:27 10° SSW 07:23:16 79° ESE 07:26:23 10° NNE
Cosmos 2034 Rocket 4.4 07:18:55 10° SW 07:24:39 39° WNW 07:30:30 10° N
PSLV R/B 4.5 07:21:49 10° WSW 07:24:59 38° S 07:28:08 10° ESE
Sich 1 3.9 07:21:56 10° NNW 07:25:43 29° W 07:29:26 10° SSW
Nadezhda 4 Rocket 4.4 07:21:40 10° NNW 07:27:38 45° W 07:33:32 10° SSW
